Location: Unspecified
(0.0000°N, 0.0000°E)
Time: 11:47:44
(UTC+00:00)

Envisat - Pass Details

Date: 17 August 2019
Orbit: 764 x 766 km, 98.1° (Epoch: 08 December)

Event Time Altitude Azimuth Distance (km) Brightness Sun altitude
Rises 18:32:08 0° 164° (SSE) 3,229 5.9 -6.8°
Reaches altitude 10° 18:34:27 10° 162° (SSE) 2,301 5.2 -7.4°
Maximum altitude 18:39:30 72° 78° (ENE) 805 3.0 -8.6°
Drops below altitude 10° 18:44:31 10° 354° (N) 2,290 5.7 -9.8°
Sets 18:46:49 0° 352° (N) 3,213 6.5 -10.4°
